EW1898 Weather Reports


time (UTC)temp
F
wind
direction
speed
knots
gust
knots
rain 1hr
in
rain 24hr
in
rain mn
in
humidity
%
barometer
mb
20260502203111 51 295 0.0 1.7 0.00 0.11 0.11 81 1009.7
20260502201557 51 290 0.0 1.7 0.00 0.11 0.11 82 1009.7
20260502200055 51 297 0.0 3.5 0.00 0.11 0.11 78 1010.0
20260502194557 52 301 1.7 6.1 0.00 0.11 0.11 77 1009.8
20260502193054 55 302 3.5 8.7 0.00 0.11 0.11 67 1009.8
20260502191608 56 284 0.0 2.6 0.00 0.11 0.11 62 1009.8
20260502190104 57 47 0.0 2.6 0.00 0.11 0.11 62 1009.8
20260502184551 58 203 0.0 3.5 0.00 0.11 0.11 58 1010.0
20260502183058 57 213 0.0 3.5 0.00 0.11 0.11 61 1010.1
20260502181547 58 260 0.9 3.5 0.00 0.11 0.11 66 1010.2
20260502163049 53 99 0.0 2.6 0.00 0.11 0.11 82 1011.1
20260502161528 51 298 0.9 4.3 0.00 0.11 0.11 83 1011.4
20260502160128 50 276 0.0 0.9 0.00 0.11 0.11 87 1011.6
20260502151518 48 299 0.0 2.6 0.00 0.11 0.11 91 1011.5
20260502123011 43 302 0.0 0.9 0.04 0.06 0.06 94 1012.5
20260502121509 44 302 0.0 0.0 0.04 0.05 0.05 94 1012.3
20260502114508 44 303 0.0 1.7 0.02 0.03 0.03 94 1012.6
20260502113007 44 292 0.0 0.9 0.01 0.02 0.02 92 1012.7
20260502111502 44 279 0.0 0.9 0.00 0.01 0.01 92 1011.7
20260502110003 44 279 0.0 0.9 0.00 0.01 0.01 91 1011.3
20260502104500 44 279 0.0 0.9 0.01 0.01 0.01 90 1011.4
20260502103102 44 279 0.0 0.0 0.01 0.01 0.01 89 1011.2
20260502101605 44 279 0.0 0.9 0.01 0.01 0.01 87 1011.4
20260502070049 46 295 0.0 1.7 0.00 0.00 0.00 74 1011.1
20260502064545 46 253 0.0 0.9 0.00 0.00 0.00 72 1011.4
20260502063041 46 253 0.0 0.9 0.00 0.00 0.00 72 1011.1
20260502061537 46 253 0.0 0.9 0.00 0.00 0.00 72 1011.0
20260502060033 47 253 0.0 0.9 0.00 0.00 0.00 67 1011.1
20260502054530 48 253 0.0 0.9 0.00 0.00 0.00 61 1011.0
20260502053029 48 253 0.0 0.9 0.00 0.00 0.00 59 1011.1
20260502051530 48 253 0.0 1.7 0.00 0.00 0.00 58 1011.1
20260502050032 48 254 0.0 0.9 0.00 0.00 0.00 58 1011.1
20260502044523 49 254 0.0 0.0 0.00 0.00 0.00 59 1011.4
20260502043023 49 254 0.0 0.0 0.00 0.00 0.00 59 1011.6
20260502041521 49 295 0.0 0.9 0.00 0.00 0.00 61 1011.4
20260502040017 49 295 0.0 0.0 0.00 0.00 0.00 64 1011.2
20260502034530 49 295 0.0 0.0 0.00 0.00 0.00 62 1011.2
20260502033016 50 295 0.0 0.9 0.00 0.00 0.00 58 1011.2
20260502031515 50 295 0.0 0.9 0.00 0.00 0.00 52 1011.0
20260502030014 50 295 0.0 0.9 0.00 0.00 0.00 51 1011.0
20260502024517 49 295 0.0 0.9 0.00 0.00 0.00 51 1011.0
20260502023014 50 295 0.0 0.9 0.00 0.00 0.00 53 1011.1
20260502021512 50 295 0.0 0.9 0.00 0.00 0.00 50 1011.0
20260502020011 50 295 0.0 0.9 0.00 0.00 0.00 48 1011.1
20260502014528 51 295 0.0 0.9 0.00 0.00 0.00 46 1011.0
20260502013010 51 295 0.0 0.0 0.00 0.00 0.00 46 1011.0
20260502011509 52 295 0.0 0.0 0.00 0.00 0.00 44 1010.9
20260502010010 52 295 0.0 0.9 0.00 0.00 0.00 46 1010.8
20260502004506 52 295 0.0 0.9 0.00 0.00 0.00 46 1010.6
20260502003004 53 295 0.0 0.9 0.00 0.00 0.00 44 1010.5
20260502001508 54 295 0.0 0.9 0.00 0.00 0.00 43 1010.2
20260502000010 55 295 0.0 0.9 0.00 0.00 0.00 41 1010.0
20260501234501 57 295 0.0 0.0 0.00 0.00 0.00 37 1009.8
20260501233103 59 295 0.0 1.7 0.00 0.00 0.00 35 1009.5
20260501231601 60 295 0.0 3.5 0.00 0.00 0.00 32 1009.3
20260501230105 61 292 0.0 3.5 0.00 0.00 0.00 32 1009.2
20260501224555 60 277 2.6 7.8 0.00 0.00 0.00 32 1009.2
20260501223100 60 279 0.0 7.8 0.00 0.00 0.00 33 1009.0
20260501221601 61 328 1.7 6.1 0.00 0.00 0.00 31 1009.0
20260501220056 61 324 0.9 7.8 0.00 0.00 0.00 33 1008.9
20260501214552 61 281 0.9 6.1 0.00 0.00 0.00 32 1008.9
20260501213051 60 276 3.5 9.6 0.00 0.00 0.00 33 1008.8
20260501211550 61 308 3.5 8.7 0.00 0.00 0.00 32 1008.7
20260501210048 60 305 1.7 8.7 0.00 0.00 0.00 33 1008.5
20260501204547 60 298 1.7 9.6 0.00 0.00 0.00 34 1008.4